EWG86GD LIMC-EDDS

Flight info

Callsign EWG86GD
Flight time N/A
Altitude 24000
Route PEPAG DCT ABESI N851 UTAVO DCT SOPER N851 ROMIR T125 REUTL REUTL5A
Aircraft A21N/M-SDE2E3FGHIRWXY/LB1

Departure

Time 2026-04-30 22:47
Airport Milan Malpensa International Airport (LIMC)

Arrival

Time N/A
Airport Stuttgart Airport (EDDS)
Time Latitude Longitude Altitude Speed Heading
2026-04-30 21:25 45.62724 8.71690 746 ft 0 kts 331°
2026-04-30 22:08 45.62707 8.71703 725 ft 4 kts 330°
2026-04-30 22:08 45.62684 8.71723 746 ft 4 kts 328°
2026-04-30 22:08 45.62665 8.71738 745 ft 4 kts 347°
2026-04-30 22:09 45.62644 8.71734 745 ft 5 kts 45°
2026-04-30 22:09 45.62633 8.71707 745 ft 3 kts 79°
2026-04-30 22:34 45.62641 8.71760 746 ft 5 kts 79°
2026-04-30 22:35 45.62598 8.71844 746 ft 8 kts 169°
2026-04-30 22:36 45.62307 8.71926 743 ft 13 kts 167°
2026-04-30 22:36 45.62211 8.71954 745 ft 15 kts 172°
2026-04-30 22:37 45.61875 8.72045 745 ft 18 kts 168°
2026-04-30 22:37 45.61747 8.72079 744 ft 19 kts 169°
2026-04-30 22:37 45.61471 8.72157 747 ft 21 kts 171°
2026-04-30 22:38 45.61166 8.72239 744 ft 23 kts 168°
2026-04-30 22:38 45.61034 8.72345 747 ft 12 kts 83°
2026-04-30 22:39 45.61053 8.72476 747 ft 14 kts 79°
2026-04-30 22:39 45.61117 8.72979 746 ft 12 kts 78°
2026-04-30 22:40 45.61244 8.73159 747 ft 12 kts 33°
2026-04-30 22:41 45.61266 8.73180 746 ft 0 kts 33°
2026-04-30 22:42 45.61277 8.73190 745 ft 4 kts 33°
2026-04-30 22:43 45.61366 8.73265 746 ft 10 kts 13°
2026-04-30 22:43 45.61538 8.73230 744 ft 15 kts 348°
2026-04-30 22:44 45.61626 8.73347 747 ft 12 kts 78°
2026-04-30 22:45 45.61675 8.73722 744 ft 0 kts 348°
2026-04-30 22:47 45.64549 8.72934 1345 ft 158 kts 349°
2026-04-30 22:47 45.66602 8.73424 2069 ft 171 kts 57°
2026-04-30 22:48 45.67492 8.76911 3363 ft 201 kts 68°
2026-04-30 22:49 45.70639 8.81154 6223 ft 213 kts 38°
2026-04-30 22:49 45.72530 8.86721 8560 ft 247 kts 109°
2026-04-30 22:50 45.71158 8.89718 9868 ft 255 kts 127°
2026-04-30 22:51 45.70267 8.91328 10580 ft 258 kts 126°
2026-04-30 22:51 45.68053 8.95456 12310 ft 264 kts 124°
2026-04-30 22:52 45.66950 8.97572 13196 ft 266 kts 123°
2026-04-30 22:52 45.64854 9.01970 14854 ft 269 kts 108°
2026-04-30 22:53 45.64484 9.07472 15677 ft 300 kts 85°
2026-04-30 22:53 45.64652 9.13795 16611 ft 329 kts 84°
2026-04-30 22:53 45.64734 9.17077 17528 ft 330 kts 84°
2026-04-30 22:54 45.64905 9.23695 19166 ft 335 kts 84°
2026-04-30 22:55 45.65159 9.33846 21177 ft 348 kts 84°
2026-04-30 22:55 45.65329 9.40825 22372 ft 356 kts 84°
2026-04-30 22:56 45.65498 9.47975 23653 ft 365 kts 83°
2026-04-30 22:56 45.65743 9.58979 24383 ft 369 kts 83°
2026-04-30 22:57 45.65908 9.66272 24383 ft 368 kts 83°
2026-04-30 22:57 45.66084 9.73600 24377 ft 370 kts 81°
2026-04-30 22:58 45.68005 9.80532 24388 ft 392 kts 48°
2026-04-30 22:59 45.75592 9.85316 24365 ft 434 kts
2026-04-30 22:59 45.83728 9.79491 24357 ft 462 kts 314°